TimePST,TemperatureF,Dew PointF,Humidity,Sea Level PressureIn,VisibilityMPH,Wind Direction,Wind SpeedMPH,Gust SpeedMPH,PrecipitationIn,Events,Conditions,WindDirDegrees,DateUTC
12:56 AM,39.0,1.0,20,29.99,10.0,NW,13.8,25.3,N/A,,Clear,310,2013-12-08 08:56:00
1:56 AM,37.9,-0.9,19,30.00,10.0,NW,17.3,24.2,N/A,,Clear,310,2013-12-08 09:56:00
2:56 AM,37.0,-0.9,20,30.03,10.0,NW,17.3,29.9,N/A,,Clear,320,2013-12-08 10:56:00
3:56 AM,37.0,-0.9,20,30.05,10.0,NNW,8.1,-,N/A,,Clear,330,2013-12-08 11:56:00
4:56 AM,35.1,-0.0,23,30.07,10.0,NNE,6.9,-,N/A,,Clear,20,2013-12-08 12:56:00
5:56 AM,33.1,6.1,32,30.10,10.0,NE,10.4,-,N/A,,Clear,40,2013-12-08 13:56:00
6:56 AM,32.0,7.0,35,30.14,10.0,East,6.9,-,N/A,,Scattered Clouds,80,2013-12-08 14:56:00
7:56 AM,34.0,6.1,31,30.16,10.0,NE,5.8,-,N/A,,Scattered Clouds,40,2013-12-08 15:56:00
8:56 AM,36.0,6.1,29,30.18,10.0,NE,8.1,-,N/A,,Scattered Clouds,50,2013-12-08 16:56:00
9:56 AM,37.9,5.0,25,30.19,10.0,ENE,3.5,-,N/A,,Scattered Clouds,60,2013-12-08 17:56:00
10:56 AM,39.0,3.9,23,30.17,10.0,ENE,5.8,-,N/A,,Scattered Clouds,60,2013-12-08 18:56:00
11:56 AM,39.9,3.0,21,30.13,10.0,NE,4.6,-,N/A,,Scattered Clouds,40,2013-12-08 19:56:00
12:56 PM,39.9,3.0,21,30.11,10.0,SSW,3.5,-,N/A,,Scattered Clouds,200,2013-12-08 20:56:00
1:56 PM,41.0,1.9,20,30.11,10.0,Calm,Calm,-,N/A,,Scattered Clouds,0,2013-12-08 21:56:00
2:56 PM,41.0,1.0,19,30.11,10.0,Calm,Calm,-,N/A,,Scattered Clouds,0,2013-12-08 22:56:00
3:56 PM,39.9,1.0,20,30.12,10.0,Calm,Calm,-,N/A,,Partly Cloudy,0,2013-12-08 23:56:00
4:56 PM,37.9,1.0,21,30.12,10.0,ENE,4.6,-,N/A,,Clear,70,2013-12-09 00:56:00
5:56 PM,37.0,1.9,23,30.15,10.0,East,4.6,-,N/A,,Clear,80,2013-12-09 01:56:00
6:56 PM,36.0,1.9,24,30.17,10.0,Calm,Calm,-,N/A,,Clear,0,2013-12-09 02:56:00
7:56 PM,35.1,3.0,26,30.18,10.0,ENE,5.8,-,N/A,,Clear,70,2013-12-09 03:56:00
8:56 PM,34.0,3.9,28,30.20,10.0,Calm,Calm,-,N/A,,Clear,0,2013-12-09 04:56:00
9:56 PM,33.1,6.1,32,30.20,10.0,Calm,Calm,-,N/A,,Clear,0,2013-12-09 05:56:00
10:56 PM,30.0,10.0,43,30.23,10.0,SW,4.6,-,N/A,,Clear,220,2013-12-09 06:56:00
11:56 PM,30.0,9.0,41,30.25,10.0,Calm,Calm,-,N/A,,Clear,0,2013-12-09 07:56:00